Location: Maiden
(35.5760°N, 81.2120°W)
Time: 21:06:49
(UTC-04:00)

CARTOSAT-1 - Pass Details

Date: 14 June 2018
Orbit: 618 x 619 km, 97.8° (Epoch: 18 June)

Event Time Altitude Azimuth Distance (km) Brightness Sun altitude
Exits shadow 22:48:40 32° 83° (E) 1,054 4.4 -20.4°
Maximum altitude 22:49:02 33° 72° (ENE) 1,042 4.5 -20.5°
Drops below altitude 10° 22:52:54 10° 8° (N) 1,988 6.7 -21.0°
Sets 22:55:15 0° 359° (N) 2,898 7.9 -21.2°
